Regional Weather Roundup
Issued by NWS Grand Forks, ND

Home | Current Version | Previous Version | Graphics & Text | Print | Product List | Glossary On
Versions: 1 2 3 4 5 6 7 8 9 10 11 12 13 14 15 16 17 18 19 20 21 22 23 24 25 26 27 28 29 30 31 32 33 34 35 36 37 38 39 40 41 42 43 44 45 46 47 48 49 50
243
ASUS43 KFGF 271710
RWRFGF
PRAIRIE TO PINES  WEATHER ROUNDUP
NATIONAL WEATHER SERVICE EASTERN NORTH DAKOTA/GRAND FORKS ND
1200 PM CDT SAT MAY 27 2017

 **SATELLITE DATA USED TO AUGMENT SKY COVER AT AUTOMATED STATIONS**
 *****  WEATHER ACROSS EASTERN NORTH DAKOTA  *****

CITY           SKY/WX    TMP DP  RH WIND       PRES   REMARKS
GRAND FORKS    FAIR      75  43  31 W23       29.77S
GRAND FRKS AFB FAIR      72  43  35 NW20G26   29.78S
DEVILS LAKE    FAIR      66  42  41 W17G23    29.80F
FARGO          FAIR      74  38  27 W15G29    29.81S
WAHPETON ARPT  FAIR      73  34  23 SW16G22   29.84S
$$

 ***** WEATHER ACROSS CENTRAL AND WESTERN NORTH DAKOTA  *****

CITY           SKY/WX    TMP DP  RH WIND       PRES   REMARKS
BISMARCK       PTSUNNY   71  40  32 W14G23    29.87F
MINOT          FAIR      71  40  32 W14G22    29.79F
JAMESTOWN      FAIR      71  41  33 W16G28    29.83S
MINOT AFB      FAIR      70  40  33 NW14G25   29.78F
GARRISON         N/A     67  41  38 W21       29.83F
WILLISTON      FAIR      72  42  34 W14G21    29.85F
DICKINSON      FAIR      67  35  30 W17G24    29.89F
HETTINGER      FAIR      69  38  32 W18       29.95F
$$

 *****  OTHER AIRPORT OBSERVATIONS IN OUR AREA  *****

CITY           SKY/WX    TMP DP  RH WIND       PRES   REMARKS
WALHALLA       NOT AVBL
GRAFTON AIRPOR FAIR      70  45  40 W18       29.77S
VALLEY CITY AR FAIR      72  39  30 W23       29.84F
CANDO          NOT AVBL
CAVALIER APRT  FAIR      72  37  28 W15G23    29.73F
GWINNER        SUNNY     72  41  33 MISG      29.85S
SHEYENNE NWR     N/A     74  45  35 W7        29.95S
ROLLA            N/A     66  41  39 W14G22    29.77S
 ***** THE ABOVE OBSERVATIONS ARE NON NWS ARE NOT QUALITY
       CONTROLLED AND MAY MIS-REPORT RAIN FOR SNOW...
$$

  *****  WEATHER ACROSS NORTHERN MINNESOTA  *****

CITY           SKY/WX    TMP DP  RH WIND       PRES   REMARKS
FLAG ISLAND    FAIR      57  48  72 S16       29.71F
WARROAD        FAIR      72  43  35 SW12      29.74S
ROSEAU         FAIR      70  43  37 SW16G25   29.73F
HALLOCK        FAIR      72  41  33 SW20G25   29.72F
THF RVR FALLS  NOT AVBL
BAUDETTE       FAIR      71  37  28 W14G23    29.75S
WASKISH        CLOUDY    70  46  43 W9        29.79S
CROOKSTON      FAIR      73  39  29 W18G24    29.78S
STEPHEN NDAWN    N/A     72  43  35 W17         N/A
GREENBUSH NDAW   N/A     70  43  37 W20         N/A
$$
  *****  WEATHER ACROSS CENTRAL AND WEST MINNESOTA  *****

CITY           SKY/WX    TMP DP  RH WIND       PRES   REMARKS
FOSSTON        FAIR      70  39  32 W10       29.81S
BEMIDJI        FAIR      71  38  30 W12G20    29.80F
PARK RAPIDS    FAIR      73  38  27 W13       29.83F
ELBOW LAKE     FAIR      72  41  32 SW10G17   29.86F
WADENA         FAIR      70  45  40 SW12G17   29.85S
DETROIT LAKES  FAIR      72  41  33 W12G18    29.84S
MOORHEAD       FAIR      75  37  25 W14G20    29.82F
FERGUS FALLS   FAIR      73  43  33 W10G17    29.83S
MORRIS MN      FAIR      73  43  33 W10       29.86F
STAPLES        FAIR      70  43  37 SW7       29.86S
$$
  *****  WEATHER ELSEWHERE ACROSS MINNESOTA  *****

CITY           SKY/WX    TMP DP  RH WIND       PRES   REMARKS
DULUTH         FAIR      68  43  40 W14G21    29.85R
INTRNTL FALLS  FAIR      73  39  29 SW9G16    29.76F
ELY            FAIR      63  45  51 W10G16    29.82F
CLOQUET        FAIR      68  37  32 W10       29.85S
WHEATON        FAIR      75  36  23 W12G23    29.87F
BRAINERD       FAIR      68  44  42 SW9       29.87S
HIBBING        FAIR      67  41  38 NW9       29.83F
ALEXANDRIA     FAIR      70  43  37 SW9       29.89S
SAINT CLOUD    FAIR      68  48  48 W7        29.89R
MINNEAPOLIS    CLOUDY    70  43  37 W8        29.90S
$$

  *****  WEATHER ACROSS SOUTH DAKOTA  *****

CITY           SKY/WX    TMP DP  RH WIND       PRES   REMARKS
SIOUX FALLS    CLOUDY    63  55  75 SW6       29.96R
BROOKINGS      FAIR      64  49  57 W7        29.94R
WATERTOWN      CLOUDY    67  40  37 W10       29.91S
HURON          CLOUDY    70  43  37 NW14      29.92S
SISSETON         N/A     72  43  35 W14       29.86S
ABERDEEN       FAIR      69  42  37 W23G29    29.90S
MITCHELL       CLOUDY    66  49  54 NW5       29.96R
PIERRE         FAIR      64  48  56 S8        29.95F
MOBRIDGE       FAIR      72  37  28 NW10      29.89F
RAPID CITY     FAIR      68  37  32 N16G25    30.02S
$$

  *****  SOME WEATHER IN NEARBY STATES *****

CITY           SKY/WX    TMP DP  RH WIND       PRES   REMARKS
GLASGOW MT     FAIR      68  40  35 NW12      29.91S
GREAT FALLS MT FAIR      67  39  35 W10       30.08F
CHEYENNE WY    PTSUNNY   47  38  71 N13G21    30.14S
SCOTTSBLUFF NE CLOUDY    57  42  57 NW12      30.08R
OMAHA NE       PTSUNNY   62  55  77 NE15G23   29.88S
DES MOINES IA  TSTM      63  61  94 SE3       29.90R
DAVENPORT IA   FAIR      67  60  78 E3        29.94S
CHICAGO IL     FAIR      70  52  52 CALM      29.91S
EAU CLAIRE WI  FAIR      71  47  42 W6        29.89R
LA CROSSE WI   FAIR      73  58  59 VRB7      29.89S
$$

  *****  SOME NATIONAL WEATHER *****

CITY           SKY/WX    TMP DP  RH WIND       PRES   REMARKS
LA GUARDIA NY  PTSUNNY   72  53  51 VRB3      29.86S
RALEIGH NC     FAIR      85  67  54 SW7       29.93F
ATLANTA GA     PTSUNNY   80  64  58 W10       30.07R
NEW ORLEANS LA PTSUNNY   86  76  71 S8        30.05S HX  96
OKLAHOMA CITY  FAIR      88  68  51 S17G23    29.77R HX  91
ALBUQUERQUE NM FAIR      73  17  12 W14       30.10S
SALT LAKE CITY FAIR      60  37  42 W7        30.22R
LOS ANGELES CA FAIR      64  53  67 W9        30.07S
BOISE ID       FAIR      65  40  39 CALM      30.19S
SEATTLE WA     FAIR      70  48  45 W3        30.10S
$$

*** WEATHER ACROSS MANITOBA...SASKATCHEWAN AND ONTARIO ***
                ***ONTARIO***

CITY           SKY/WX    TMP DP  RH WIND       PRES   REMARKS
GERALDTON      PTSUNNY   70  57  64 S14       29.76S
THUNDER BAY    CLOUDY    63  50  63 NE10      29.78S
SIOUX LOOKOUT  PTSUNNY   66  46  48 S10       29.73S
TORONTO        PTSUNNY   61  55  82 SE9       29.91R
BIG TROUT LK   SUNNY     70  48  46 S5        29.64F
PICKLE LAKE    PTSUNNY   70  46  43 W9        29.69S
DRYDEN         SUNNY     66  45  45 W13G21    29.73F
KENORA         MOSUNNY   64  46  52 SW7       29.73F
$$
                *** MANITOBA***

CITY           SKY/WX    TMP DP  RH WIND       PRES   REMARKS
BRANDON        MOSUNNY   66  39  37 W17G25    29.72F
DAUPHIN        CLOUDY    59  48  67 NW20G25   29.69R
ISLAND LAKE    NOT AVBL
PILOT MOUND      N/A     66  39  37 W9          N/A
THE PAS        CLOUDY    48  46  93 NW10G17   29.63R
THOMPSON       CLOUDY    48  46  93 NE8       29.59R FOG
WINNIPEG       PTSUNNY   70  41  35 SW12G25   29.70F
LYNN LAKE      CLOUDY    43  41  93 N10G17    29.69R
CHURCHILL      CLOUDY    39  37  93 NE12      29.71S
GILLAM         PTSUNNY   57  50  77 N3        29.60F
$$
                ***SASKATCHEWAN***

CITY           SKY/WX    TMP DP  RH WIND       PRES   REMARKS
ESTEVAN        MOSUNNY   68  39  34 NW17G30   29.79F
KINDERSLEY     MOSUNNY   68  36  30 NW17G24   29.89S
LLOYDMINSTER   MOSUNNY   64  41  42 N9        29.89R
PRINCE ALBERT  MOSUNNY   63  37  39 N20G28    29.78S
REGINA         PTSUNNY   61  37  41 N17       29.82R
YORKTON          N/A     61  43  51 NW15G21   29.72F
N. BATTLEFORD  SUNNY     66  37  34 N20G25    29.87S
LA RONGE       CLOUDY    55  46  71 NW12G23   29.76S
SASKATOON      MOSUNNY   66  36  32 N18G26    29.82R
SWIFT CURRENT  CLOUDY    64  41  42 NW21G30   29.89R
$$
NOTE: THESE ARE AUTOMATED STATIONS WITH LIMITED QUALITY CONTROL
      "FAIR" INDICATES FEW OR NO CLOUDS BELOW 12,000 FEET WITH NO
      SIGNIFICANT WEATHER AND/OR OBSTRUCTIONS TO VISIBILITY.
      SKY/WX - SKY CONDITION AND SIGNIFICANT WEATHER.
      TMP - AIR TEMPERATURE.    DP   - DEWPOINT TEMPERATURE.
      RH  - RELATIVE HUMIDITY.  PRES - PRESSURE.
      HX  - HEAT INDEX.         WCI  - WIND CHILL INDEX.
$




USA.gov is the U.S. government's official web portal to all federal, state and local government web resources and services.